Lubbock, TX

9:47 AM CDT on May 26, 2017 (GMT -0500)
Lubbock International

Weather History for KLBB - April, 2012

Change the Weather History Date:

Friday, April 20, 2012

  Actual Average Record
Temperature  
Mean Temperature 63 °F 62 °F  
Max Temperature 75 °F 77 °F 93 °F (1925)
Min Temperature 50 °F 47 °F 30 °F (1933)
Degree Days  
Heating Degree Days 2 5  
Month to date heating degree days 52 144  
Since 1 July heating degree days 2950 3298  
Cooling Degree Days 0 2  
Month to date cooling degree days 57 25  
Year to date cooling degree days 109 32  
Growing Degree Days 13 (Base 50)    
Moisture  
Dew Point 40 °F    
Average Humidity 50    
Maximum Humidity 77    
Minimum Humidity 23    
Precipitation  
Precipitation T in 0.05 in 1.01 in (1937)
Month to date precipitation 0.88 0.86  
Year to date precipitation 2.17 3.36  
Snow  
Snow 0.00 in 0.00 in 0.00 in (2002)
Month to date snowfall 0.0 0.2  
Since 1 July snowfall 6.8 8.2  
Snow Depth 0.00 in    
Sea Level Pressure  
Sea Level Pressure 29.95 in    
Wind  
Wind Speed 13 mph (NNE)    
Max Wind Speed 28 mph    
Max Gust Speed 35 mph    
Visibility 10 miles    
Events Rain    
T = Trace of Precipitation, MM = Missing Value Source: NWS Daily Summary

Daily Weather History Graph

Daily Weather History Graph

Search for Another Location

Airport or City:

Trip Planner

Search our weather history database for the weather conditions in past years. The results will help you decide how hot, cold, wet, or windy it might be!

Date:

Astronomy

Apr. 20, 2012 Rise Set
Actual Time 7:10 AM CDT 8:22 PM CDT
Civil Twilight 6:44 AM CDT 8:48 PM CDT
Nautical Twilight 6:13 AM CDT 9:19 PM CDT
Astronomical Twilight 5:41 AM CDT 9:51 PM CDT
Moon 6:34 AM CDT (4/20) 8:07 PM CDT (4/20)
Length of Visible Light 14h 04m
Length of Day
13h 12m
Waning Crescent, 0% of the Moon is Illuminated
Apr 20
Waning Crescent
Apr 21
New
Apr 29
First Quarter
May 5
Full
May 12
Last Quarter

Hourly Weather History & Observations

Time (CDT) Temp. Dew Point Humidity Pressure Visibility Wind Dir Wind Speed Gust Speed Precip Events Conditions
12:53 AM 59.0 °F 45.0 °F 60% 29.82 in 10.0 mi North 24.2 mph 32.2 mph N/A   Overcast
1:53 AM 55.9 °F 43.0 °F 62% 29.78 in 10.0 mi NNE 21.9 mph 34.5 mph 0.00 in   Overcast
2:53 AM 57.0 °F 44.1 °F 62% 29.80 in 10.0 mi Variable 5.8 mph - N/A   Overcast
3:53 AM 57.0 °F 43.0 °F 59% 29.84 in 10.0 mi North 11.5 mph 19.6 mph N/A   Overcast
4:53 AM 55.0 °F 45.0 °F 69% 29.87 in 10.0 mi NNW 8.1 mph - 0.00 in Rain Light Rain
5:53 AM 53.1 °F 46.0 °F 77% 29.88 in 10.0 mi NNE 10.4 mph - 0.00 in   Mostly Cloudy
6:53 AM 51.1 °F 45.0 °F 80% 29.93 in 10.0 mi North 9.2 mph - N/A   Scattered Clouds
7:53 AM 51.1 °F 44.1 °F 77% 29.96 in 10.0 mi North 10.4 mph - N/A   Scattered Clouds
8:53 AM 57.0 °F 45.0 °F 64% 29.98 in 10.0 mi North 15.0 mph - N/A   Partly Cloudy
9:53 AM 61.0 °F 43.0 °F 52% 29.99 in 10.0 mi North 17.3 mph - N/A   Partly Cloudy
10:53 AM 66.9 °F 42.1 °F 40% 30.00 in 10.0 mi NNE 13.8 mph 23.0 mph N/A   Partly Cloudy
11:53 AM 68.0 °F 43.0 °F 40% 30.02 in 10.0 mi NNE 23.0 mph 28.8 mph N/A   Partly Cloudy
12:53 PM 70.0 °F 41.0 °F 35% 30.02 in 10.0 mi NNE 17.3 mph 24.2 mph N/A   Partly Cloudy
1:53 PM 72.0 °F 39.0 °F 30% 30.02 in 10.0 mi NNE 13.8 mph 26.5 mph N/A   Scattered Clouds
2:53 PM 73.0 °F 36.0 °F 26% 30.01 in 10.0 mi NNE 17.3 mph 29.9 mph N/A   Scattered Clouds
3:53 PM 73.9 °F 34.0 °F 23% 29.99 in 10.0 mi NNW 15.0 mph 27.6 mph N/A   Scattered Clouds
4:53 PM 73.0 °F 34.0 °F 24% 29.98 in 10.0 mi NNE 15.0 mph 26.5 mph N/A   Scattered Clouds
5:53 PM 73.0 °F 34.0 °F 24% 29.97 in 10.0 mi North 16.1 mph - N/A   Scattered Clouds
6:53 PM 72.0 °F 35.1 °F 26% 29.97 in 10.0 mi North 18.4 mph 23.0 mph N/A   Partly Cloudy
7:53 PM 69.1 °F 34.0 °F 27% 29.99 in 10.0 mi North 15.0 mph 19.6 mph N/A   Partly Cloudy
8:53 PM 63.0 °F 34.0 °F 34% 30.01 in 10.0 mi NNE 5.8 mph - N/A   Partly Cloudy
9:53 PM 59.0 °F 33.1 °F 38% 30.02 in 10.0 mi ENE 6.9 mph - N/A   Clear
10:53 PM 57.0 °F 35.1 °F 44% 30.04 in 10.0 mi East 6.9 mph - N/A   Clear
11:53 PM 55.0 °F 35.1 °F 47% 30.04 in 10.0 mi ESE 9.2 mph - N/A   Clear